Simultaneous Nadir Overpasses (SNOs) Predictions

Prediction of SNOs between NOAA-19 and METOP-C Satellite Orbit:

Table of predicted SNOs for the next 14.0 days since TLE Epoch: 5/22/2020
Index Date (NOAA-19) Time (NOAA-19) Lat,Lon (NOAA-19) SZA (NOAA-19 ) Date (METOP-C) Time (METOP-C) Lat,Lon (METOP-C) SZA (METOP-C ) Distance(km) Time Diff (sec)
1 05/25/2020 10:39:36 79.96, 42.31 59.70 05/25/2020 10:40:51 79.98, 42.18 59.73 3.19 75
2 05/25/2020 11:30:31 -79.97,-150.55 120.31 05/25/2020 11:31:32 -79.98,-150.56 120.29 0.26 61
3 05/25/2020 12:21:36 79.97, 16.69 59.69 05/25/2020 12:22:12 79.97, 16.72 59.70 0.77 36
4 05/25/2020 13:12:31 -79.96,-175.86 120.32 05/25/2020 13:12:54 -79.96,-176.02 120.33 3.17 23
5 05/25/2020 14:03:36 79.96, -8.62 59.67 05/25/2020 14:03:34 79.96, -8.74 59.66 2.26 2
6 05/25/2020 14:54:32 -79.97, 158.52 120.34 05/25/2020 14:54:16 -79.95, 158.52 120.36 1.93 16
7 05/25/2020 15:45:37 79.97, -34.25 59.66 05/25/2020 15:44:56 79.95, -34.20 59.63 2.72 41
8 05/25/2020 16:36:32 -79.95, 133.21 120.35 05/25/2020 16:35:37 -79.97, 133.36 120.34 3.22 55
9 06/05/2020 11:53:04 79.99, 24.09 58.15 06/05/2020 11:54:14 80.00, 24.03 58.18 2.00 70
10 06/05/2020 12:44:02 -79.99,-168.64 121.85 06/05/2020 12:44:56 -80.01,-168.58 121.81 2.77 54
11 06/05/2020 13:35:05 80.00, -1.54 58.15 06/05/2020 13:35:36 79.99, -1.44 58.16 2.19 31
12 06/05/2020 14:26:02 -79.97, 166.05 121.86 06/05/2020 14:26:18 -80.00, 165.96 121.84 3.32 16
13 06/05/2020 15:17:05 79.98, -26.86 58.14 06/05/2020 15:16:58 79.98, -26.90 58.13 1.00 7
14 06/05/2020 16:08:03 -79.98, 140.43 121.87 06/05/2020 16:07:40 -79.98, 140.50 121.87 1.38 23
15 06/05/2020 16:59:05 79.97, -52.17 58.13 06/05/2020 16:58:19 80.00, -52.06 58.15 3.59 46
16 06/05/2020 17:50:03 -79.97, 115.12 121.88 06/05/2020 17:49:02 -79.97, 115.04 121.89 1.73 61




NCC Satellite Simultaneous Nadir Overpasses (SNOs) Prediction Service
